Alpena, MI

8:37 AM EDT on April 23, 2017 (GMT -0400)
Alpena County Regional

Weather History for KAPN - November, 2013

Change the Weather History Date:

Wednesday, November 6, 2013

  Actual Average Record
Temperature  
Mean Temperature 47 °F 39 °F  
Max Temperature 56 °F 47 °F 71 °F (1975)
Min Temperature 37 °F 31 °F 1 °F (1951)
Degree Days  
Heating Degree Days 18 26  
Month to date heating degree days 133 151  
Since 1 July heating degree days 1063 1095  
Moisture  
Dew Point 45 °F    
Average Humidity 89    
Maximum Humidity 100    
Minimum Humidity 77    
Precipitation  
Precipitation 0.40 in 0.07 in 0.97 in (2005)
Month to date precipitation 0.61 0.44  
Year to date precipitation 28.06 24.75  
Snow  
Snow 0.00 in 0.10 in 0.90 in (1991)
Month to date snowfall T 0.7  
Since 1 July snowfall T 1.1  
Snow Depth 0.00 in    
Sea Level Pressure  
Sea Level Pressure 29.79 in    
Wind  
Wind Speed 11 mph (SW)    
Max Wind Speed 18 mph    
Max Gust Speed 25 mph    
Visibility 8 miles    
Events Rain    
T = Trace of Precipitation, MM = Missing Value Source: NWS Daily Summary

Daily Weather History Graph

Daily Weather History Graph

Search for Another Location

Airport or City:

Trip Planner

Search our weather history database for the weather conditions in past years. The results will help you decide how hot, cold, wet, or windy it might be!

Date:

Astronomy

Nov. 06, 2013 Rise Set
Actual Time 7:20 AM EST 5:15 PM EST
Civil Twilight 6:48 AM EST 5:46 PM EST
Nautical Twilight 6:13 AM EST 6:21 PM EST
Astronomical Twilight 5:39 AM EST 6:55 PM EST
Moon 10:37 AM EST (11/6) 8:14 PM EST (11/6)
Length of Visible Light 10h 57m
Length of Day
9h 55m
Waxing Crescent, 13% of the Moon is Illuminated
Nov 6
Waxing Crescent
Nov 10
First Quarter
Nov 17
Full
Nov 25
Last Quarter
Dec 2
New

Hourly Weather History & Observations

Time (EST) Temp. Windchill Dew Point Humidity Pressure Visibility Wind Dir Wind Speed Gust Speed Precip Events Conditions
12:54 AM 51.1 °F - 44.1 °F 77% 30.04 in 10.0 mi South 13.8 mph 20.7 mph N/A   Overcast
1:54 AM 51.1 °F - 44.1 °F 77% 30.03 in 10.0 mi South 10.4 mph - N/A   Overcast
2:54 AM 51.1 °F - 44.1 °F 77% 29.99 in 10.0 mi South 12.7 mph - N/A   Overcast
3:54 AM 51.1 °F - 44.1 °F 77% 29.95 in 10.0 mi South 10.4 mph - N/A   Overcast
4:54 AM 51.1 °F - 44.1 °F 77% 29.91 in 10.0 mi South 15.0 mph - N/A   Overcast
5:45 AM 50.0 °F - 44.6 °F 82% 29.88 in 10.0 mi South 10.4 mph - 0.00 in Rain Light Rain
5:54 AM 50.0 °F - 45.0 °F 83% 29.89 in 10.0 mi South 13.8 mph - 0.00 in   Overcast
6:54 AM 48.9 °F - 46.9 °F 93% 29.85 in 9.0 mi South 15.0 mph 20.7 mph 0.01 in Rain Light Rain
7:11 AM 48.2 °F - 46.4 °F 93% 29.83 in 5.0 mi South 12.7 mph - 0.01 in Rain Light Rain
7:54 AM 48.9 °F - 46.9 °F 93% 29.82 in 9.0 mi South 11.5 mph - 0.02 in Rain Light Rain
8:24 AM 48.2 °F - 46.4 °F 93% 29.80 in 4.0 mi South 11.5 mph - 0.03 in Rain Light Rain
8:54 AM 48.9 °F - 48.0 °F 97% 29.79 in 9.0 mi South 9.2 mph - 0.04 in Rain Light Rain
9:54 AM 50.0 °F - 48.0 °F 93% 29.75 in 9.0 mi South 10.4 mph - 0.01 in Rain Light Rain
10:54 AM 51.1 °F - 48.9 °F 92% 29.74 in 4.0 mi SSW 9.2 mph - 0.05 in Rain Rain
11:31 AM 51.8 °F - 50.0 °F 94% 29.72 in 5.0 mi SSW 9.2 mph - 0.04 in Rain Light Rain
11:38 AM 51.8 °F - 50.0 °F 94% 29.71 in 4.0 mi SSW 9.2 mph - 0.05 in Rain Rain
11:46 AM 51.8 °F - 50.0 °F 94% 29.70 in 5.0 mi SSW 10.4 mph 17.3 mph 0.06 in Rain Light Rain
11:54 AM 52.0 °F - 50.0 °F 93% 29.71 in 7.0 mi SSW 11.5 mph - 0.07 in Rain Light Rain
12:13 PM 51.8 °F - 51.8 °F 100% 29.68 in 7.0 mi SSW 10.4 mph - 0.01 in Rain Light Rain
12:54 PM 53.1 °F - 51.1 °F 93% 29.66 in 7.0 mi SSW 11.5 mph 19.6 mph 0.06 in Rain Light Rain
1:54 PM 54.0 °F - 53.1 °F 97% 29.62 in 10.0 mi SSW 9.2 mph - 0.03 in Rain Light Rain
2:04 PM 53.6 °F - 53.6 °F 100% 29.61 in 10.0 mi SSW 9.2 mph - 0.00 in Rain Light Rain
2:24 PM 55.4 °F - 53.6 °F 94% 29.60 in 10.0 mi SSW 10.4 mph 19.6 mph 0.02 in Rain Light Rain
2:54 PM 55.0 °F - 53.1 °F 93% 29.61 in 10.0 mi North - - 0.02 in Rain Light Rain
3:48 PM 50.0 °F - 48.2 °F 94% 29.63 in 2.5 mi WNW 12.7 mph 24.2 mph 0.01 in Rain Heavy Rain
3:54 PM 48.0 °F - 46.0 °F 93% 29.65 in 2.5 mi WNW 9.2 mph 21.9 mph 0.03 in Rain Light Rain
4:02 PM 46.4 °F 41.5 °F 46.4 °F 100% 29.65 in 3.0 mi WNW 10.4 mph 16.1 mph 0.01 in Rain Rain
4:16 PM 46.4 °F 41.1 °F 44.6 °F 93% 29.66 in 4.0 mi WNW 11.5 mph 19.6 mph 0.03 in Rain Light Rain
4:51 PM 44.6 °F 40.7 °F 42.8 °F 93% 29.69 in 7.0 mi WNW 6.9 mph - 0.05 in Rain Light Rain
4:54 PM 45.0 °F 41.2 °F 43.0 °F 93% 29.70 in 8.0 mi WNW 6.9 mph - 0.05 in Rain Light Rain
5:54 PM 41.0 °F 33.9 °F 39.0 °F 93% 29.76 in 10.0 mi WNW 12.7 mph 24.2 mph 0.01 in   Overcast
6:54 PM 41.0 °F 34.7 °F 37.0 °F 86% 29.80 in 10.0 mi WNW 10.4 mph 20.7 mph N/A   Overcast
7:24 PM 39.2 °F 32.5 °F 37.4 °F 93% 29.80 in 10.0 mi WNW 10.4 mph 23.0 mph N/A   Overcast
7:54 PM 39.9 °F 32.5 °F 36.0 °F 86% 29.84 in 10.0 mi WNW 12.7 mph 23.0 mph N/A   Overcast
8:54 PM 39.0 °F 32.3 °F 35.1 °F 86% 29.87 in 10.0 mi WNW 10.4 mph 20.7 mph 0.00 in   Overcast
9:54 PM 37.9 °F 31.5 °F 34.0 °F 86% 29.91 in 10.0 mi WNW 9.2 mph 17.3 mph 0.00 in Rain Light Rain
10:54 PM 37.0 °F 31.0 °F 33.1 °F 86% 29.94 in 10.0 mi NW 8.1 mph - 0.00 in Rain Light Rain
11:14 PM 37.4 °F 33.8 °F 33.8 °F 87% 29.92 in 10.0 mi Variable 4.6 mph - 0.00 in   Overcast
11:54 PM 37.0 °F 31.6 °F 32.0 °F 82% 29.95 in 10.0 mi Variable 6.9 mph - 0.00 in   Overcast